| time (UTC) | temp F | wind direction | speed MPH | gust MPH | rain 1hr in | rain 24hr in | rain mn in | humidity % | barometer mb |
| 20260509051147 | 71 | 269 | 1.0 | 3.0 | 0.00 | 0.00 | 0.00 | 95 | 1011.9 |
| 20260509050648 | 71 | 211 | 1.0 | 2.0 | 0.00 | 0.00 | 0.00 | 95 | 1011.9 |
| 20260509050147 | 71 | 216 | 1.0 | 2.0 | 0.00 | 0.00 | 0.00 | 95 | 1011.9 |
| 20260509045647 | 71 | 179 | 1.0 | 3.0 | 0.00 | 0.00 | 0.90 | 95 | 1011.9 |
| 20260509045147 | 71 | 214 | 1.0 | 4.0 | 0.00 | 0.00 | 0.90 | 95 | 1011.9 |
| 20260509044647 | 71 | 179 | 2.0 | 3.0 | 0.00 | 0.00 | 0.90 | 96 | 1011.9 |
| 20260509044148 | 71 | 180 | 3.0 | 4.0 | 0.00 | 0.00 | 0.90 | 96 | 1011.9 |
| 20260509043647 | 71 | 173 | 3.0 | 5.0 | 0.00 | 0.00 | 0.90 | 96 | 1011.9 |
| 20260509043149 | 71 | 157 | 4.0 | 5.0 | 0.00 | 0.00 | 0.90 | 96 | 1011.5 |
| 20260509042647 | 71 | 267 | 0.0 | 5.0 | 0.00 | 0.00 | 0.90 | 96 | 1011.5 |
| 20260509042147 | 71 | 174 | 3.0 | 6.0 | 0.00 | 0.00 | 0.90 | 96 | 1011.5 |
| 20260509041646 | 71 | 158 | 6.0 | 6.0 | 0.00 | 0.00 | 0.90 | 96 | 1011.5 |
| 20260509041146 | 71 | 172 | 2.0 | 7.0 | 0.00 | 0.00 | 0.90 | 96 | 1011.5 |
| 20260509040646 | 71 | 176 | 5.0 | 8.0 | 0.00 | 0.00 | 0.90 | 96 | 1011.2 |
| 20260509040146 | 71 | 175 | 4.0 | 8.0 | 0.00 | 0.00 | 0.90 | 96 | 1011.5 |
| 20260509035646 | 71 | 165 | 5.0 | 9.0 | 0.00 | 0.00 | 0.90 | 96 | 1011.2 |
| 20260509035147 | 71 | 160 | 5.0 | 10.0 | 0.00 | 0.00 | 0.90 | 96 | 1011.5 |
| 20260509034647 | 71 | 163 | 4.0 | 6.0 | 0.00 | 0.00 | 0.90 | 96 | 1011.2 |
| 20260509034148 | 71 | 181 | 3.0 | 8.0 | 0.00 | 0.00 | 0.90 | 96 | 1011.5 |
| 20260509033646 | 71 | 142 | 4.0 | 9.0 | 0.00 | 0.00 | 0.90 | 97 | 1011.2 |
| 20260509033147 | 71 | 182 | 2.0 | 5.0 | 0.00 | 0.00 | 0.90 | 96 | 1011.2 |
| 20260509032647 | 71 | 147 | 6.0 | 9.0 | 0.00 | 0.00 | 0.90 | 96 | 1011.2 |
| 20260509032146 | 71 | 146 | 7.0 | 7.0 | 0.00 | 0.00 | 0.90 | 96 | 1011.5 |
| 20260509031646 | 71 | 138 | 3.0 | 4.0 | 0.00 | 0.00 | 0.90 | 96 | 1011.5 |
| 20260509031147 | 71 | 178 | 0.0 | 4.0 | 0.00 | 0.00 | 0.90 | 96 | 1011.5 |
| 20260509030648 | 71 | 208 | 2.0 | 3.0 | 0.00 | 0.00 | 0.90 | 96 | 1011.5 |
| 20260509030146 | 71 | 255 | 0.0 | 3.0 | 0.00 | 0.00 | 0.90 | 96 | 1011.5 |
| 20260509025646 | 71 | 50 | 0.0 | 3.0 | 0.00 | 0.00 | 0.90 | 96 | 1011.9 |
| 20260509025146 | 71 | 333 | 1.0 | 3.0 | 0.00 | 0.00 | 0.90 | 97 | 1011.5 |
| 20260509024647 | 70 | 343 | 0.0 | 3.0 | 0.00 | 0.00 | 0.90 | 97 | 1011.2 |
| 20260509024147 | 70 | 173 | 0.0 | 3.0 | 0.00 | 0.00 | 0.90 | 97 | 1011.5 |
| 20260509023646 | 70 | 0 | 1.0 | 2.0 | 0.00 | 0.00 | 0.90 | 96 | 1011.5 |
| 20260509023146 | 70 | 210 | 1.0 | 2.0 | 0.00 | 0.00 | 0.90 | 96 | 1011.5 |
| 20260509022649 | 70 | 31 | 2.0 | 5.0 | 0.00 | 0.00 | 0.90 | 97 | 1011.2 |
| 20260509022150 | 70 | 62 | 2.0 | 5.0 | 0.00 | 0.00 | 0.90 | 97 | 1010.8 |
| 20260509021652 | 70 | 137 | 1.0 | 4.0 | 0.00 | 0.00 | 0.90 | 97 | 1010.8 |
| 20260509021146 | 70 | 116 | 3.0 | 6.0 | 0.00 | 0.00 | 0.90 | 97 | 1010.5 |
| 20260509020648 | 70 | 140 | 4.0 | 7.0 | 0.00 | 0.00 | 0.90 | 97 | 1010.8 |
| 20260509020148 | 70 | 35 | 1.0 | 4.0 | 0.00 | 0.00 | 0.90 | 97 | 1010.8 |
| 20260509015647 | 70 | 150 | 1.0 | 10.0 | 0.00 | 0.00 | 0.90 | 97 | 1010.8 |
| 20260509015149 | 70 | 148 | 5.0 | 5.0 | 0.00 | 0.00 | 0.90 | 98 | 1010.5 |
| 20260509014647 | 70 | 130 | 5.0 | 10.0 | 0.00 | 0.00 | 0.90 | 98 | 1010.5 |
| 20260509014148 | 69 | 125 | 2.0 | 11.0 | 0.00 | 0.00 | 0.90 | 98 | 1010.8 |
| 20260509013646 | 69 | 148 | 9.0 | 9.0 | 0.00 | 0.00 | 0.90 | 98 | 1010.8 |
| 20260509013147 | 69 | 161 | 5.0 | 8.0 | 0.00 | 0.00 | 0.90 | 98 | 1010.5 |
| 20260509012647 | 69 | 96 | 4.0 | 8.0 | 0.00 | 0.00 | 0.90 | 98 | 1010.5 |
| 20260509012148 | 69 | 108 | 2.0 | 7.0 | 0.00 | 0.00 | 0.90 | 98 | 1010.5 |
| 20260509011647 | 69 | 147 | 4.0 | 5.0 | 0.00 | 0.00 | 0.90 | 98 | 1010.5 |
| 20260509011149 | 69 | 58 | 3.0 | 5.0 | 0.00 | 0.00 | 0.90 | 97 | 1010.8 |
| 20260509010647 | 69 | 100 | 4.0 | 8.0 | 0.00 | 0.00 | 0.90 | 97 | 1010.8 |
| 20260509010149 | 69 | 142 | 3.0 | 9.0 | 0.00 | 0.00 | 0.90 | 97 | 1010.5 |
| 20260509005647 | 70 | 103 | 3.0 | 8.0 | 0.00 | 0.00 | 0.90 | 97 | 1010.5 |
| 20260509005147 | 70 | 100 | 1.0 | 10.0 | 0.00 | 0.00 | 0.90 | 97 | 1010.8 |
| 20260509004646 | 70 | 124 | 5.0 | 7.0 | 0.00 | 0.00 | 0.90 | 97 | 1010.8 |
| 20260509004148 | 70 | 164 | 4.0 | 6.0 | 0.00 | 0.00 | 0.90 | 97 | 1010.8 |
| 20260509003646 | 70 | 296 | 1.0 | 5.0 | 0.00 | 0.00 | 0.90 | 97 | 1011.2 |
| 20260509003147 | 70 | 103 | 2.0 | 5.0 | 0.00 | 0.00 | 0.90 | 97 | 1011.2 |
| 20260509002647 | 70 | 64 | 4.0 | 6.0 | 0.00 | 0.00 | 0.90 | 97 | 1011.2 |
| 20260509002148 | 70 | 67 | 3.0 | 5.0 | 0.00 | 0.00 | 0.90 | 97 | 1011.2 |
| 20260509001646 | 70 | 25 | 2.0 | 5.0 | 0.00 | 0.00 | 0.90 | 97 | 1011.2 |
| 20260509001147 | 70 | 24 | 2.0 | 3.0 | 0.00 | 0.00 | 0.90 | 97 | 1011.2 |
| 20260509000647 | 70 | 333 | 1.0 | 3.0 | 0.00 | 0.00 | 0.90 | 97 | 1011.5 |
| 20260509000147 | 70 | 355 | 2.0 | 5.0 | 0.00 | 0.00 | 0.90 | 97 | 1011.5 |
| 20260508235649 | 70 | 306 | 1.0 | 4.0 | 0.00 | 0.00 | 0.90 | 97 | 1011.9 |
| 20260508235151 | 69 | 333 | 3.0 | 3.0 | 0.00 | 0.00 | 0.90 | 97 | 1011.5 |
| 20260508234648 | 69 | 313 | 5.0 | 6.0 | 0.00 | 0.00 | 0.90 | 97 | 1011.5 |
| 20260508234147 | 69 | 19 | 3.0 | 6.0 | 0.00 | 0.00 | 0.90 | 97 | 1011.9 |
| 20260508233647 | 69 | 39 | 3.0 | 6.0 | 0.00 | 0.00 | 0.90 | 98 | 1011.9 |
| 20260508233148 | 69 | 349 | 3.0 | 5.0 | 0.00 | 0.00 | 0.90 | 98 | 1011.9 |
| 20260508232649 | 69 | 84 | 3.0 | 3.0 | 0.00 | 0.00 | 0.90 | 98 | 1011.5 |
| 20260508232146 | 69 | 346 | 5.0 | 7.0 | 0.00 | 0.00 | 0.90 | 98 | 1011.9 |
| 20260508231648 | 69 | 173 | 3.0 | 5.0 | 0.00 | 0.00 | 0.90 | 98 | 1011.5 |
| 20260508231147 | 69 | 347 | 3.0 | 5.0 | 0.00 | 0.00 | 0.90 | 98 | 1011.5 |
| 20260508230647 | 69 | 277 | 3.0 | 5.0 | 0.00 | 0.00 | 0.90 | 98 | 1011.5 |
| 20260508230148 | 69 | 59 | 4.0 | 7.0 | 0.00 | 0.00 | 0.90 | 98 | 1011.5 |
| 20260508225647 | 68 | 52 | 5.0 | 7.0 | 0.00 | 0.00 | 0.90 | 98 | 1011.5 |
| 20260508225149 | 68 | 135 | 6.0 | 8.0 | 0.02 | 0.00 | 0.90 | 98 | 1011.9 |
| 20260508224646 | 68 | 233 | 4.0 | 7.0 | 0.09 | 0.00 | 0.90 | 98 | 1011.9 |
| 20260508224147 | 68 | 200 | 1.0 | 9.0 | 0.24 | 0.00 | 0.89 | 98 | 1011.9 |
| 20260508223647 | 68 | 72 | 4.0 | 9.0 | 0.19 | 0.00 | 0.88 | 98 | 1011.9 |
| 20260508223146 | 68 | 39 | 2.0 | 9.0 | 0.05 | 0.00 | 0.85 | 98 | 1011.9 |
| 20260508222648 | 68 | 21 | 4.0 | 6.0 | 0.00 | 0.00 | 0.85 | 98 | 1011.9 |
| 20260508222147 | 68 | 289 | 2.0 | 8.0 | 0.00 | 0.00 | 0.85 | 98 | 1011.5 |
| 20260508221647 | 68 | 186 | 2.0 | 8.0 | 0.00 | 0.00 | 0.85 | 98 | 1011.9 |
| 20260508221151 | 68 | 10 | 5.0 | 10.0 | 0.00 | 0.00 | 0.85 | 98 | 1011.9 |
| 20260508220647 | 68 | 165 | 4.0 | 8.0 | 0.02 | 0.00 | 0.85 | 98 | 1011.9 |
| 20260508220147 | 68 | 64 | 7.0 | 11.0 | 0.07 | 0.00 | 0.85 | 98 | 1011.9 |
| 20260508215647 | 68 | 85 | 5.0 | 11.0 | 0.12 | 0.00 | 0.84 | 98 | 1011.9 |
| 20260508215148 | 68 | 73 | 8.0 | 13.0 | 0.05 | 0.00 | 0.83 | 98 | 1012.2 |
| 20260508214647 | 68 | 64 | 10.0 | 13.0 | 0.00 | 0.00 | 0.82 | 98 | 1012.5 |
| 20260508214147 | 68 | 40 | 4.0 | 9.0 | 0.00 | 0.00 | 0.82 | 98 | 1012.2 |
| 20260508213646 | 68 | 22 | 3.0 | 11.0 | 0.02 | 0.00 | 0.82 | 98 | 1012.9 |
| 20260508213148 | 68 | 49 | 7.0 | 14.0 | 0.02 | 0.00 | 0.82 | 98 | 1012.9 |
| 20260508212649 | 68 | 45 | 5.0 | 10.0 | 0.02 | 0.00 | 0.82 | 99 | 1012.9 |
| 20260508212146 | 68 | 19 | 6.0 | 14.0 | 0.07 | 0.00 | 0.82 | 99 | 1013.2 |
| 20260508211647 | 68 | 20 | 5.0 | 11.0 | 0.21 | 0.00 | 0.81 | 99 | 1013.2 |
| 20260508211148 | 68 | 56 | 6.0 | 14.0 | 0.59 | 0.00 | 0.81 | 99 | 1013.2 |
| 20260508210647 | 68 | 41 | 4.0 | 18.0 | 0.69 | 0.00 | 0.77 | 99 | 1013.2 |
| 20260508210148 | 68 | 20 | 11.0 | 13.0 | 0.57 | 0.00 | 0.71 | 98 | 1013.2 |
| 20260508205647 | 68 | 42 | 3.0 | 13.0 | 0.73 | 0.00 | 0.65 | 98 | 1013.9 |
| 20260508205149 | 68 | 342 | 12.0 | 13.0 | 1.16 | 0.00 | 0.61 | 98 | 1013.2 |
| 20260508204646 | 68 | 28 | 14.0 | 21.0 | 1.39 | 0.00 | 0.52 | 97 | 1012.5 |
| 20260508204146 | 68 | 30 | 13.0 | 18.0 | 1.91 | 0.00 | 0.41 | 97 | 1013.2 |
| 20260508203647 | 69 | 48 | 5.0 | 14.0 | 1.56 | 0.00 | 0.26 | 96 | 1012.5 |
| 20260508203146 | 69 | 28 | 9.0 | 18.0 | 0.31 | 0.00 | 0.05 | 93 | 1012.9 |
| 20260508202646 | 70 | 348 | 5.0 | 20.0 | 0.00 | 0.00 | 0.00 | 91 | 1012.5 |
| 20260508202147 | 70 | 37 | 9.0 | 27.0 | 0.00 | 0.00 | 0.00 | 90 | 1012.2 |
| 20260508201647 | 70 | 29 | 5.0 | 19.0 | 0.00 | 0.00 | 0.00 | 89 | 1011.9 |
| 20260508201147 | 70 | 58 | 8.0 | 24.0 | 0.00 | 0.00 | 0.00 | 89 | 1012.2 |
| 20260508200649 | 71 | 15 | 9.0 | 22.0 | 0.00 | 0.00 | 0.00 | 89 | 1011.9 |
| 20260508200147 | 72 | 43 | 9.0 | 19.0 | 0.00 | 0.00 | 0.00 | 88 | 1011.9 |
| 20260508195649 | 72 | 51 | 11.0 | 23.0 | 0.00 | 0.00 | 0.00 | 89 | 1012.2 |
| 20260508195149 | 73 | 35 | 9.0 | 17.0 | 0.00 | 0.00 | 0.00 | 88 | 1012.2 |
| 20260508194651 | 74 | 53 | 15.0 | 23.0 | 0.00 | 0.00 | 0.00 | 87 | 1012.2 |
| 20260508194148 | 75 | 52 | 10.0 | 18.0 | 0.00 | 0.00 | 0.00 | 87 | 1012.2 |
| 20260508193648 | 74 | 54 | 10.0 | 15.0 | 0.00 | 0.00 | 0.00 | 88 | 1012.5 |
| 20260508193146 | 74 | 27 | 9.0 | 13.0 | 0.00 | 0.00 | 0.00 | 88 | 1012.9 |
| 20260508192649 | 75 | 47 | 8.0 | 11.0 | 0.00 | 0.00 | 0.00 | 87 | 1012.9 |
| 20260508192153 | 75 | 69 | 7.0 | 12.0 | 0.00 | 0.00 | 0.00 | 87 | 1012.9 |
| 20260508191148 | 76 | 38 | 4.0 | 10.0 | 0.00 | 0.00 | 0.00 | 86 | 1012.9 |
| 20260508190647 | 76 | 50 | 4.0 | 14.0 | 0.00 | 0.00 | 0.00 | 85 | 1012.9 |
| 20260508190151 | 77 | 18 | 6.0 | 10.0 | 0.00 | 0.00 | 0.00 | 84 | 1012.9 |
| 20260508185646 | 77 | 34 | 6.0 | 11.0 | 0.00 | 0.00 | 0.00 | 84 | 1012.5 |
| 20260508185148 | 78 | 63 | 6.0 | 9.0 | 0.00 | 0.00 | 0.00 | 82 | 1012.5 |
| 20260508184647 | 78 | 58 | 5.0 | 14.0 | 0.00 | 0.00 | 0.00 | 82 | 1012.5 |
| 20260508184150 | 78 | 165 | 5.0 | 6.0 | 0.00 | 0.00 | 0.00 | 83 | 1012.2 |
| 20260508183649 | 78 | 129 | 5.0 | 12.0 | 0.00 | 0.00 | 0.00 | 83 | 1012.2 |
| 20260508183147 | 78 | 85 | 5.0 | 10.0 | 0.00 | 0.00 | 0.00 | 82 | 1012.2 |
| 20260508182647 | 77 | 81 | 7.0 | 8.0 | 0.00 | 0.00 | 0.00 | 83 | 1012.5 |
| 20260508182148 | 78 | 66 | 9.0 | 11.0 | 0.00 | 0.00 | 0.00 | 82 | 1012.5 |
| 20260508181650 | 78 | 59 | 6.0 | 9.0 | 0.00 | 0.00 | 0.00 | 81 | 1012.5 |
| 20260508181146 | 78 | 125 | 2.0 | 12.0 | 0.00 | 0.00 | 0.00 | 81 | 1012.5 |
| 20260508180648 | 78 | 114 | 3.0 | 10.0 | 0.00 | 0.00 | 0.00 | 81 | 1012.2 |
| 20260508180148 | 79 | 68 | 10.0 | 13.0 | 0.00 | 0.00 | 0.00 | 79 | 1012.5 |
| 20260508175649 | 79 | 62 | 4.0 | 10.0 | 0.00 | 0.00 | 0.00 | 80 | 1012.2 |
| 20260508175147 | 78 | 96 | 4.0 | 11.0 | 0.00 | 0.00 | 0.00 | 80 | 1012.2 |
| 20260508174652 | 78 | 39 | 4.0 | 11.0 | 0.00 | 0.00 | 0.00 | 80 | 1012.2 |
| 20260508174148 | 78 | 101 | 3.0 | 12.0 | 0.00 | 0.00 | 0.00 | 79 | 1012.5 |
| 20260508173647 | 78 | 79 | 8.0 | 10.0 | 0.00 | 0.00 | 0.00 | 80 | 1012.5 |
| 20260508173148 | 77 | 93 | 3.0 | 11.0 | 0.00 | 0.00 | 0.00 | 81 | 1012.9 |
| 20260508172647 | 78 | 72 | 9.0 | 13.0 | 0.00 | 0.00 | 0.00 | 80 | 1012.9 |
| 20260508172148 | 77 | 65 | 6.0 | 10.0 | 0.00 | 0.00 | 0.00 | 82 | 1012.9 |
| 20260508171648 | 77 | 60 | 8.0 | 10.0 | 0.00 | 0.00 | 0.00 | 82 | 1012.9 |
| 20260508171147 | 77 | 76 | 6.0 | 11.0 | 0.00 | 0.00 | 0.00 | 81 | 1012.9 |
| 20260508170650 | 78 | 43 | 4.0 | 13.0 | 0.00 | 0.00 | 0.00 | 81 | 1012.9 |
| 20260508170148 | 77 | 198 | 1.0 | 8.0 | 0.00 | 0.00 | 0.00 | 83 | 1012.9 |
| 20260508165649 | 78 | 165 | 2.0 | 9.0 | 0.00 | 0.00 | 0.00 | 81 | 1012.9 |
| 20260508165148 | 77 | 146 | 5.0 | 10.0 | 0.00 | 0.00 | 0.00 | 82 | 1013.2 |
| 20260508164651 | 77 | 171 | 3.0 | 7.0 | 0.00 | 0.00 | 0.00 | 83 | 1013.2 |
| 20260508164150 | 76 | 113 | 3.0 | 7.0 | 0.00 | 0.00 | 0.00 | 84 | 1012.9 |
| 20260508163651 | 76 | 93 | 5.0 | 9.0 | 0.00 | 0.00 | 0.00 | 84 | 1013.2 |
| 20260508162730 | 76 | 59 | 6.0 | 8.0 | 0.00 | 0.00 | 0.00 | 82 | 1013.2 |
| 20260508162149 | 75 | 137 | 4.0 | 8.0 | 0.00 | 0.00 | 0.00 | 85 | 1013.2 |
| 20260508161649 | 75 | 99 | 7.0 | 15.0 | 0.00 | 0.00 | 0.00 | 84 | 1013.2 |
| 20260508161149 | 75 | 71 | 6.0 | 13.0 | 0.00 | 0.00 | 0.00 | 85 | 1013.2 |
| 20260508160649 | 75 | 69 | 8.0 | 10.0 | 0.00 | 0.00 | 0.00 | 84 | 1013.2 |
| 20260508160149 | 75 | 66 | 9.0 | 11.0 | 0.00 | 0.00 | 0.00 | 85 | 1013.5 |
| 20260508155648 | 74 | 203 | 0.0 | 7.0 | 0.00 | 0.00 | 0.00 | 85 | 1013.5 |
| 20260508155148 | 75 | 75 | 5.0 | 5.0 | 0.00 | 0.00 | 0.00 | 85 | 1013.9 |
| 20260508154649 | 73 | 345 | 3.0 | 8.0 | 0.00 | 0.00 | 0.00 | 86 | 1013.9 |
| 20260508154149 | 73 | 69 | 4.0 | 10.0 | 0.00 | 0.00 | 0.00 | 86 | 1013.9 |
| 20260508153648 | 73 | 42 | 3.0 | 9.0 | 0.00 | 0.00 | 0.00 | 87 | 1013.9 |
| 20260508153148 | 73 | 62 | 7.0 | 10.0 | 0.00 | 0.00 | 0.00 | 87 | 1013.9 |
| 20260508152650 | 73 | 71 | 2.0 | 5.0 | 0.00 | 0.00 | 0.00 | 87 | 1013.9 |
| 20260508152149 | 72 | 138 | 2.0 | 8.0 | 0.00 | 0.00 | 0.00 | 88 | 1013.9 |
| 20260508151649 | 73 | 84 | 6.0 | 11.0 | 0.00 | 0.00 | 0.00 | 87 | 1013.5 |
| 20260508151147 | 73 | 91 | 4.0 | 6.0 | 0.00 | 0.00 | 0.00 | 87 | 1013.9 |
| 20260508150649 | 72 | 60 | 5.0 | 8.0 | 0.00 | 0.00 | 0.00 | 87 | 1013.5 |
| 20260508150151 | 72 | 73 | 5.0 | 11.0 | 0.00 | 0.00 | 0.00 | 88 | 1013.5 |
| 20260508145647 | 72 | 84 | 5.0 | 10.0 | 0.00 | 0.00 | 0.00 | 87 | 1013.9 |
| 20260508145149 | 72 | 55 | 5.0 | 9.0 | 0.00 | 0.00 | 0.00 | 86 | 1013.9 |
| 20260508144646 | 72 | 70 | 5.0 | 7.0 | 0.00 | 0.00 | 0.00 | 86 | 1013.9 |
| 20260508144146 | 72 | 65 | 7.0 | 11.0 | 0.00 | 0.00 | 0.00 | 85 | 1013.5 |
| 20260508143647 | 73 | 69 | 5.0 | 12.0 | 0.00 | 0.00 | 0.00 | 84 | 1013.5 |
| 20260508143147 | 72 | 64 | 7.0 | 13.0 | 0.00 | 0.00 | 0.00 | 85 | 1013.5 |
| 20260508142648 | 72 | 77 | 9.0 | 14.0 | 0.00 | 0.00 | 0.00 | 86 | 1013.5 |
| 20260508142148 | 72 | 61 | 9.0 | 9.0 | 0.00 | 0.00 | 0.00 | 85 | 1013.2 |
| 20260508141649 | 72 | 83 | 5.0 | 11.0 | 0.00 | 0.00 | 0.00 | 84 | 1013.5 |
| 20260508141149 | 72 | 63 | 10.0 | 11.0 | 0.00 | 0.00 | 0.00 | 85 | 1013.5 |
| 20260508140649 | 71 | 62 | 9.0 | 13.0 | 0.00 | 0.00 | 0.00 | 86 | 1013.5 |
| 20260508140150 | 71 | 78 | 6.0 | 7.0 | 0.00 | 0.00 | 0.00 | 86 | 1013.9 |
| 20260508135648 | 71 | 64 | 9.0 | 13.0 | 0.00 | 0.00 | 0.00 | 86 | 1013.5 |
| 20260508135147 | 71 | 62 | 7.0 | 9.0 | 0.00 | 0.00 | 0.00 | 86 | 1013.5 |
| 20260508134649 | 70 | 77 | 5.0 | 11.0 | 0.00 | 0.00 | 0.00 | 87 | 1013.5 |
| 20260508134149 | 70 | 82 | 5.0 | 14.0 | 0.00 | 0.00 | 0.00 | 87 | 1013.9 |
| 20260508133648 | 70 | 70 | 5.0 | 9.0 | 0.00 | 0.00 | 0.00 | 86 | 1013.9 |
| 20260508133149 | 70 | 65 | 6.0 | 12.0 | 0.00 | 0.00 | 0.00 | 86 | 1013.9 |
| 20260508132648 | 70 | 60 | 6.0 | 11.0 | 0.00 | 0.00 | 0.00 | 86 | 1013.9 |
| 20260508132149 | 70 | 37 | 7.0 | 8.0 | 0.00 | 0.00 | 0.00 | 87 | 1013.9 |
| 20260508131648 | 70 | 44 | 4.0 | 10.0 | 0.00 | 0.00 | 0.00 | 87 | 1013.9 |
| 20260508131148 | 70 | 49 | 6.0 | 12.0 | 0.00 | 0.00 | 0.00 | 87 | 1013.9 |
| 20260508130647 | 70 | 55 | 10.0 | 12.0 | 0.00 | 0.00 | 0.00 | 87 | 1013.9 |
| 20260508130151 | 70 | 40 | 4.0 | 6.0 | 0.00 | 0.00 | 0.00 | 88 | 1014.2 |
| 20260508125647 | 70 | 50 | 10.0 | 13.0 | 0.00 | 0.00 | 0.00 | 88 | 1014.2 |
| 20260508125148 | 70 | 24 | 7.0 | 12.0 | 0.00 | 0.00 | 0.00 | 88 | 1014.2 |
| 20260508124649 | 70 | 4 | 5.0 | 8.0 | 0.00 | 0.00 | 0.00 | 88 | 1014.6 |
| 20260508124146 | 70 | 40 | 9.0 | 14.0 | 0.00 | 0.00 | 0.00 | 87 | 1014.6 |
| 20260508123651 | 70 | 39 | 6.0 | 9.0 | 0.00 | 0.00 | 0.00 | 87 | 1014.6 |
| 20260508123149 | 70 | 348 | 4.0 | 6.0 | 0.00 | 0.00 | 0.00 | 87 | 1014.6 |
| 20260508122652 | 70 | 85 | 3.0 | 8.0 | 0.00 | 0.00 | 0.00 | 87 | 1014.2 |
| 20260508122149 | 70 | 41 | 6.0 | 10.0 | 0.00 | 0.00 | 0.00 | 88 | 1014.2 |
| 20260508121649 | 70 | 18 | 5.0 | 7.0 | 0.00 | 0.00 | 0.00 | 88 | 1014.2 |
| 20260508121149 | 70 | 54 | 7.0 | 9.0 | 0.00 | 0.00 | 0.00 | 88 | 1014.2 |
| 20260508120648 | 70 | 33 | 4.0 | 10.0 | 0.00 | 0.00 | 0.00 | 88 | 1014.2 |
| 20260508120149 | 70 | 29 | 0.0 | 12.0 | 0.00 | 0.00 | 0.00 | 87 | 1013.9 |
| 20260508115646 | 70 | 41 | 3.0 | 5.0 | 0.00 | 0.00 | 0.00 | 88 | 1013.2 |
| 20260508115147 | 70 | 27 | 3.0 | 11.0 | 0.00 | 0.00 | 0.00 | 88 | 1013.2 |
| 20260508114650 | 70 | 27 | 5.0 | 10.0 | 0.00 | 0.00 | 0.00 | 88 | 1013.5 |
| 20260508114148 | 70 | 57 | 4.0 | 8.0 | 0.00 | 0.00 | 0.00 | 88 | 1013.5 |
| 20260508113650 | 70 | 102 | 4.0 | 9.0 | 0.00 | 0.00 | 0.00 | 88 | 1013.5 |
| 20260508113149 | 70 | 67 | 8.0 | 9.0 | 0.00 | 0.00 | 0.00 | 89 | 1013.5 |
| 20260508112648 | 70 | 8 | 2.0 | 7.0 | 0.00 | 0.00 | 0.00 | 88 | 1013.9 |
| 20260508112149 | 70 | 52 | 1.0 | 6.0 | 0.00 | 0.00 | 0.00 | 89 | 1014.2 |
| 20260508111651 | 70 | 61 | 4.0 | 7.0 | 0.00 | 0.00 | 0.00 | 89 | 1014.2 |
| 20260508111150 | 70 | 0 | 3.0 | 6.0 | 0.00 | 0.00 | 0.00 | 89 | 1014.2 |
| 20260508110649 | 70 | 62 | 5.0 | 8.0 | 0.00 | 0.00 | 0.00 | 89 | 1014.6 |
| 20260508110149 | 70 | 22 | 4.0 | 7.0 | 0.00 | 0.00 | 0.00 | 89 | 1014.2 |
| 20260508105647 | 69 | 51 | 3.0 | 7.0 | 0.00 | 0.00 | 0.00 | 89 | 1013.9 |
| 20260508105147 | 70 | 59 | 4.0 | 10.0 | 0.00 | 0.00 | 0.00 | 89 | 1013.9 |
| 20260508104647 | 70 | 72 | 2.0 | 5.0 | 0.00 | 0.00 | 0.00 | 89 | 1013.9 |
| 20260508104150 | 70 | 30 | 2.0 | 7.0 | 0.00 | 0.00 | 0.00 | 89 | 1013.9 |
| 20260508103648 | 69 | 67 | 5.0 | 6.0 | 0.00 | 0.00 | 0.00 | 89 | 1013.5 |
| 20260508103148 | 69 | 72 | 6.0 | 7.0 | 0.00 | 0.00 | 0.00 | 89 | 1013.5 |
| 20260508102650 | 69 | 357 | 2.0 | 7.0 | 0.00 | 0.00 | 0.00 | 89 | 1013.5 |
| 20260508102150 | 69 | 67 | 5.0 | 8.0 | 0.00 | 0.00 | 0.00 | 89 | 1013.5 |
| 20260508101650 | 69 | 52 | 6.0 | 9.0 | 0.00 | 0.00 | 0.00 | 90 | 1013.2 |
| 20260508101149 | 69 | 68 | 9.0 | 11.0 | 0.00 | 0.00 | 0.00 | 90 | 1012.9 |
| 20260508100646 | 69 | 93 | 3.0 | 6.0 | 0.00 | 0.00 | 0.00 | 90 | 1012.9 |
| 20260508100150 | 70 | 59 | 6.0 | 7.0 | 0.00 | 0.00 | 0.00 | 90 | 1012.9 |
| 20260508095648 | 70 | 70 | 5.0 | 10.0 | 0.00 | 0.00 | 0.00 | 90 | 1012.9 |
| 20260508095149 | 70 | 47 | 3.0 | 8.0 | 0.00 | 0.00 | 0.00 | 90 | 1012.9 |
| 20260508094646 | 70 | 56 | 5.0 | 9.0 | 0.00 | 0.00 | 0.00 | 90 | 1012.9 |
| 20260508094151 | 70 | 69 | 4.0 | 10.0 | 0.00 | 0.00 | 0.00 | 90 | 1012.9 |
| 20260508093649 | 70 | 50 | 7.0 | 8.0 | 0.00 | 0.00 | 0.00 | 90 | 1012.9 |
| 20260508093151 | 70 | 66 | 5.0 | 7.0 | 0.00 | 0.00 | 0.00 | 89 | 1013.2 |
| 20260508092651 | 70 | 39 | 5.0 | 6.0 | 0.00 | 0.00 | 0.00 | 90 | 1012.9 |
| 20260508092149 | 70 | 0 | 2.0 | 9.0 | 0.00 | 0.00 | 0.00 | 90 | 1012.9 |
| 20260508091650 | 70 | 41 | 3.0 | 9.0 | 0.00 | 0.00 | 0.00 | 90 | 1012.9 |
| 20260508091149 | 71 | 46 | 4.0 | 6.0 | 0.00 | 0.00 | 0.00 | 89 | 1012.9 |
| 20260508090650 | 71 | 53 | 4.0 | 7.0 | 0.00 | 0.00 | 0.00 | 90 | 1012.5 |
| 20260508090149 | 71 | 58 | 7.0 | 9.0 | 0.00 | 0.00 | 0.00 | 90 | 1012.9 |
| 20260508085647 | 71 | 31 | 3.0 | 8.0 | 0.00 | 0.00 | 0.00 | 90 | 1012.9 |
| 20260508085149 | 71 | 57 | 5.0 | 9.0 | 0.00 | 0.00 | 0.00 | 89 | 1012.9 |
| 20260508084649 | 71 | 17 | 7.0 | 9.0 | 0.00 | 0.00 | 0.00 | 89 | 1012.9 |
| 20260508084148 | 71 | 347 | 2.0 | 5.0 | 0.00 | 0.00 | 0.00 | 89 | 1012.9 |
| 20260508083649 | 71 | 43 | 5.0 | 8.0 | 0.00 | 0.00 | 0.00 | 88 | 1012.5 |
| 20260508083147 | 72 | 44 | 4.0 | 6.0 | 0.00 | 0.00 | 0.00 | 88 | 1012.9 |
| 20260508082647 | 71 | 39 | 3.0 | 6.0 | 0.00 | 0.00 | 0.00 | 89 | 1012.9 |
| 20260508082149 | 71 | 50 | 2.0 | 6.0 | 0.00 | 0.00 | 0.00 | 89 | 1012.9 |
| 20260508081650 | 72 | 46 | 3.0 | 7.0 | 0.00 | 0.00 | 0.00 | 88 | 1012.5 |
| 20260508081146 | 72 | 63 | 4.0 | 5.0 | 0.00 | 0.00 | 0.00 | 88 | 1012.9 |
| 20260508080646 | 72 | 65 | 3.0 | 5.0 | 0.00 | 0.00 | 0.00 | 89 | 1012.9 |
| 20260508080147 | 72 | 50 | 3.0 | 5.0 | 0.00 | 0.00 | 0.00 | 88 | 1012.9 |
| 20260508075648 | 72 | 80 | 3.0 | 4.0 | 0.00 | 0.00 | 0.00 | 88 | 1012.9 |
| 20260508075149 | 72 | 58 | 3.0 | 7.0 | 0.00 | 0.00 | 0.00 | 88 | 1013.2 |
| 20260508074646 | 72 | 47 | 5.0 | 6.0 | 0.00 | 0.00 | 0.00 | 88 | 1013.2 |
| 20260508074147 | 72 | 37 | 2.0 | 4.0 | 0.00 | 0.00 | 0.00 | 88 | 1013.2 |
| 20260508073648 | 72 | 7 | 3.0 | 8.0 | 0.00 | 0.00 | 0.00 | 88 | 1012.9 |
| 20260508073151 | 72 | 39 | 4.0 | 6.0 | 0.00 | 0.00 | 0.00 | 89 | 1012.9 |
| 20260508072646 | 72 | 64 | 4.0 | 7.0 | 0.00 | 0.00 | 0.00 | 89 | 1012.9 |
| 20260508072147 | 72 | 74 | 3.0 | 6.0 | 0.00 | 0.00 | 0.00 | 89 | 1012.5 |
| 20260508071646 | 72 | 61 | 2.0 | 4.0 | 0.00 | 0.00 | 0.00 | 88 | 1012.5 |
| 20260508071147 | 72 | 36 | 2.0 | 6.0 | 0.00 | 0.00 | 0.00 | 88 | 1012.9 |
| 20260508070646 | 72 | 44 | 2.0 | 5.0 | 0.00 | 0.00 | 0.00 | 88 | 1012.9 |
| 20260508070148 | 73 | 51 | 3.0 | 6.0 | 0.00 | 0.00 | 0.00 | 88 | 1012.9 |
| 20260508065646 | 72 | 37 | 2.0 | 6.0 | 0.00 | 0.00 | 0.00 | 88 | 1012.9 |
| 20260508065149 | 72 | 38 | 1.0 | 4.0 | 0.00 | 0.00 | 0.00 | 88 | 1012.9 |
| 20260508064650 | 72 | 10 | 3.0 | 6.0 | 0.00 | 0.00 | 0.00 | 88 | 1013.2 |
| 20260508064151 | 73 | 358 | 3.0 | 4.0 | 0.00 | 0.00 | 0.00 | 87 | 1013.2 |
| 20260508063649 | 72 | 35 | 0.0 | 4.0 | 0.00 | 0.00 | 0.00 | 88 | 1012.9 |
| 20260508063150 | 72 | 29 | 2.0 | 3.0 | 0.00 | 0.00 | 0.00 | 88 | 1013.2 |
| 20260508062646 | 72 | 67 | 4.0 | 4.0 | 0.00 | 0.00 | 0.00 | 88 | 1013.2 |
| 20260508062150 | 73 | 25 | 2.0 | 4.0 | 0.00 | 0.00 | 0.00 | 87 | 1013.2 |
| 20260508061646 | 72 | 24 | 1.0 | 4.0 | 0.00 | 0.00 | 0.00 | 88 | 1013.5 |
| 20260508061150 | 72 | 69 | 2.0 | 4.0 | 0.00 | 0.00 | 0.00 | 88 | 1013.2 |
| 20260508060649 | 72 | 64 | 3.0 | 4.0 | 0.00 | 0.00 | 0.00 | 88 | 1013.5 |
| 20260508060148 | 72 | 48 | 2.0 | 5.0 | 0.00 | 0.00 | 0.00 | 88 | 1013.2 |
| 20260508055646 | 72 | 22 | 2.0 | 5.0 | 0.00 | 0.00 | 0.00 | 88 | 1013.5 |
| 20260508055147 | 72 | 54 | 3.0 | 3.0 | 0.00 | 0.00 | 0.00 | 88 | 1013.5 |
| 20260508054648 | 73 | 22 | 4.0 | 5.0 | 0.00 | 0.00 | 0.00 | 87 | 1013.5 |
| 20260508054146 | 72 | 57 | 3.0 | 6.0 | 0.00 | 0.00 | 0.00 | 88 | 1013.5 |
| 20260508053650 | 72 | 26 | 3.0 | 5.0 | 0.00 | 0.00 | 0.00 | 88 | 1013.9 |
| 20260508053150 | 72 | 51 | 5.0 | 7.0 | 0.00 | 0.00 | 0.00 | 88 | 1013.5 |
| 20260508052648 | 72 | 43 | 5.0 | 8.0 | 0.00 | 0.00 | 0.00 | 88 | 1013.5 |
| 20260508052149 | 72 | 45 | 4.0 | 8.0 | 0.00 | 0.00 | 0.00 | 88 | 1013.5 |
| 20260508051647 | 72 | 71 | 6.0 | 7.0 | 0.00 | 0.00 | 0.00 | 88 | 1013.9 |